Location: Bellerive
(46.9237°N, 7.0223°E)
Time: 17:43:55
(UTC+00:00)

Cosmos 2366 rocket - Pass Details

Date: 09 April 2020
Orbit: 956 x 996 km, 82.9° (Epoch: 28 May)

Event Time Altitude Azimuth Distance (km) Brightness Sun altitude
Rises 19:35:58 0° 355° (N) 3,647 7.5 -14.1°
Reaches altitude 10° 19:38:35 10° 2° (N) 2,697 6.7 -14.5°
Maximum altitude 19:44:30 46° 75° (ENE) 1,264 4.3 -15.4°
Enters shadow 19:48:10 22° 137° (SE) 1,950 5.0 -15.9°
